When you browse on this site, cookies collect data to enhance your experience and personalize the content and advertising you see.
Visit our Privacy Policy to learn more. By continuing to use the site, you agree to this use of cookies and data.
  • In Hungary
  • List of Countries
  • For 7 days
  • Water Temperature
  • Satellite Maps
  • Weather Map
  • News
  • Weather Widgets
  • user-avatar
    Login

    Hourly Weather Lattakia

    Today, 10 December, Monday

    Time Temperature Precipitation Wind Pressure Humidity
    00:00 +14°C° 0.3 mm 4 mps 761 mmHg 81%
    01:00 +14°C° 0.3 mm 4 mps 761 mmHg 81%
    02:00 +14°C° 0 mm 4 mps 761 mmHg 82%
    03:00 +14°C° 0.6 mm 5 mps 760 mmHg 82%
    04:00 +14°C° 0.6 mm 5 mps 760 mmHg 82%
    05:00 +14°C° 0.6 mm 5 mps 760 mmHg 82%
    06:00 +14°C° 0.6 mm 6 mps 760 mmHg 80%
    07:00 +15°C° 0.6 mm 6 mps 760 mmHg 79%
    08:00 +15°C° 0 mm 7 mps 759 mmHg 78%
    09:00 +16°C° 0.8 mm 7 mps 759 mmHg 75%
    10:00 +17°C° 0.8 mm 8 mps 759 mmHg 72%
    11:00 +18°C° 0.8 mm 9 mps 759 mmHg 69%
    12:00 +18°C° 0.9 mm 9 mps 759 mmHg 70%
    13:00 +18°C° 0.9 mm 9 mps 759 mmHg 72%
    14:00 +18°C° 0.9 mm 9 mps 758 mmHg 74%
    15:00 +17°C° 0.7 mm 9 mps 759 mmHg 77%
    16:00 +17°C° 0.7 mm 8 mps 759 mmHg 80%
    17:00 +16°C° 0.7 mm 7 mps 759 mmHg 82%
    18:00 +16°C° 0.6 mm 7 mps 759 mmHg 83%
    19:00 +16°C° 0.6 mm 7 mps 759 mmHg 84%
    20:00 +16°C° 0.6 mm 7 mps 759 mmHg 85%
    21:00 +16°C° 0.5 mm 7 mps 758 mmHg 85%
    22:00 +16°C° 0.5 mm 8 mps 758 mmHg 85%
    23:00 +16°C° 0.5 mm 8 mps 758 mmHg 85%

    Tomorrow, 11 December, Tuesday

    Time Temperature Precipitation Wind Pressure Humidity
    00:00 +16°C° 1 mm 9 mps 758 mmHg 85%
    01:00 +16°C° 1 mm 9 mps 758 mmHg 84%
    02:00 +16°C° 1 mm 10 mps 757 mmHg 84%
    03:00 +16°C° 1 mm 11 mps 757 mmHg 82%
    04:00 +16°C° 1 mm 11 mps 757 mmHg 81%
    05:00 +17°C° 1 mm 12 mps 756 mmHg 79%
    06:00 +17°C° 1.3 mm 12 mps 756 mmHg 79%
    07:00 +17°C° 1.3 mm 12 mps 756 mmHg 79%
    08:00 +17°C° 1.3 mm 12 mps 756 mmHg 79%
    09:00 +17°C° 3 mm 12 mps 756 mmHg 80%
    10:00 +17°C° 3 mm 11 mps 757 mmHg 82%
    11:00 +17°C° 3 mm 10 mps 757 mmHg 83%
    12:00 +17°C° 1.1 mm 10 mps 757 mmHg 81%
    13:00 +17°C° 1.1 mm 9 mps 757 mmHg 79%
    14:00 +17°C° 1.1 mm 8 mps 757 mmHg 77%
    15:00 +17°C° 0.4 mm 8 mps 757 mmHg 77%
    16:00 +16°C° 0.4 mm 7 mps 757 mmHg 77%
    17:00 +16°C° 0.4 mm 7 mps 757 mmHg 76%
    18:00 +16°C° 0.3 mm 7 mps 758 mmHg 77%
    19:00 +16°C° 0.3 mm 6 mps 758 mmHg 78%
    20:00 +15°C° 0.3 mm 6 mps 758 mmHg 79%
    21:00 +15°C° 0.6 mm 6 mps 758 mmHg 81%
    22:00 +15°C° 0.6 mm 6 mps 758 mmHg 82%
    23:00 +15°C° 0.6 mm 6 mps 758 mmHg 84%

    Day after tomorrow, 12 December, Wednesday

    Time Temperature Precipitation Wind Pressure Humidity
    00:00 +15°C° 0.9 mm 7 mps 758 mmHg 86%
    01:00 +16°C° 0.9 mm 8 mps 758 mmHg 87%
    02:00 +16°C° 0.9 mm 9 mps 757 mmHg 89%
    03:00 +16°C° 1 mm 10 mps 757 mmHg 88%
    04:00 +16°C° 1 mm 10 mps 757 mmHg 86%
    05:00 +17°C° 1 mm 11 mps 756 mmHg 85%
    06:00 +17°C° 1.1 mm 11 mps 756 mmHg 83%
    07:00 +17°C° 1.1 mm 11 mps 757 mmHg 82%
    08:00 +16°C° 1.1 mm 11 mps 757 mmHg 80%
    09:00 +17°C° 0.7 mm 12 mps 757 mmHg 78%
    10:00 +17°C° 0.7 mm 12 mps 757 mmHg 76%
    11:00 +18°C° 0.7 mm 13 mps 756 mmHg 73%
    12:00 +17°C° 0.6 mm 13 mps 756 mmHg 72%
    13:00 +17°C° 0.6 mm 13 mps 756 mmHg 71%
    14:00 +17°C° 0.6 mm 13 mps 756 mmHg 69%
    15:00 +15°C° 0 mm 13 mps 756 mmHg 67%
    16:00 +15°C° 0 mm 13 mps 757 mmHg 64%
    17:00 +15°C° 0 mm 12 mps 757 mmHg 61%
    18:00 +14°C° 0 mm 12 mps 758 mmHg 61%
    19:00 +14°C° 0 mm 12 mps 758 mmHg 62%
    20:00 +14°C° 0 mm 12 mps 759 mmHg 62%
    21:00 +14°C° 0 mm 11 mps 759 mmHg 62%
    22:00 +13°C° 0 mm 10 mps 760 mmHg 62%
    23:00 +13°C° 0 mm 9 mps 760 mmHg 63%

    13 December, Thursday

    Time Temperature Precipitation Wind Pressure Humidity
    00:00 +13°C° 0 mm 9 mps 761 mmHg 63%
    01:00 +13°C° 0 mm 8 mps 761 mmHg 64%
    02:00 +12°C° 0 mm 7 mps 761 mmHg 64%
    03:00 +12°C° 0 mm 7 mps 761 mmHg 65%
    04:00 +13°C° 0 mm 6 mps 761 mmHg 65%
    05:00 +13°C° 0 mm 6 mps 762 mmHg 65%
    06:00 +13°C° 0 mm 5 mps 762 mmHg 65%
    07:00 +13°C° 0 mm 5 mps 763 mmHg 64%
    08:00 +14°C° 0 mm 4 mps 763 mmHg 63%
    09:00 +14°C° 0 mm 5 mps 763 mmHg 59%
    10:00 +15°C° 0 mm 5 mps 763 mmHg 56%
    11:00 +16°C° 0 mm 5 mps 763 mmHg 52%
    12:00 +16°C° 0 mm 5 mps 763 mmHg 52%
    13:00 +17°C° 0 mm 4 mps 763 mmHg 52%
    14:00 +17°C° 0 mm 4 mps 763 mmHg 53%
    15:00 +16°C° 0 mm 3 mps 764 mmHg 56%
    16:00 +15°C° 0 mm 2 mps 764 mmHg 60%
    17:00 +14°C° 0 mm 1 mps 764 mmHg 63%
    18:00 +13°C° 0 mm 1 mps 764 mmHg 64%
    19:00 +13°C° 0 mm 1 mps 765 mmHg 66%
    20:00 +13°C° 0 mm 1 mps 765 mmHg 67%
    21:00 +13°C° 0 mm 1 mps 765 mmHg 68%
    22:00 +13°C° 0 mm 1 mps 765 mmHg 69%
    23:00 +13°C° 0 mm 1 mps 766 mmHg 70%

    14 December, Friday

    Time Temperature Precipitation Wind Pressure Humidity
    00:00 +13°C° 0 mm 1 mps 766 mmHg 71%
    01:00 +13°C° 0 mm 1 mps 766 mmHg 72%
    02:00 +13°C° 0 mm 1 mps 766 mmHg 73%
    03:00 +13°C° 0 mm 1 mps 766 mmHg 74%
    04:00 +13°C° 0 mm 2 mps 766 mmHg 75%
    05:00 +13°C° 0 mm 2 mps 766 mmHg 75%
    06:00 +13°C° 0 mm 2 mps 766 mmHg 75%
    07:00 +13°C° 0 mm 2 mps 766 mmHg 74%
    08:00 +14°C° 0 mm 2 mps 766 mmHg 74%
    09:00 +15°C° 0 mm 2 mps 766 mmHg 70%
    10:00 +16°C° 0 mm 2 mps 766 mmHg 66%
    11:00 +17°C° 0 mm 3 mps 766 mmHg 62%
    12:00 +17°C° 0 mm 3 mps 766 mmHg 63%
    13:00 +18°C° 0 mm 3 mps 765 mmHg 64%
    14:00 +18°C° 0 mm 3 mps 765 mmHg 65%
    15:00 +17°C° 0 mm 3 mps 765 mmHg 68%
    16:00 +16°C° 0 mm 2 mps 765 mmHg 71%
    17:00 +15°C° 0 mm 2 mps 765 mmHg 74%
    18:00 +15°C° 0 mm 2 mps 766 mmHg 75%
    19:00 +15°C° 0 mm 2 mps 766 mmHg 76%
    20:00 +15°C° 0 mm 1 mps 766 mmHg 77%
    21:00 +15°C° 0 mm 1 mps 766 mmHg 78%
    22:00 +14°C° 0 mm 1 mps 766 mmHg 78%
    23:00 +14°C° 0 mm 1 mps 766 mmHg 79%

    15 December, Saturday

    Time Temperature Precipitation Wind Pressure Humidity
    00:00 +14°C° 0 mm 1 mps 766 mmHg 79%
    01:00 +14°C° 0 mm 1 mps 766 mmHg 80%
    02:00 +14°C° 0 mm 1 mps 766 mmHg 80%
    03:00 +14°C° 0 mm 2 mps 766 mmHg 80%
    04:00 +14°C° 0 mm 2 mps 766 mmHg 81%
    05:00 +14°C° 0 mm 2 mps 765 mmHg 81%
    06:00 +14°C° 0 mm 2 mps 766 mmHg 80%
    07:00 +13°C° 0 mm 3 mps 766 mmHg 79%
    08:00 +14°C° 0 mm 3 mps 766 mmHg 78%
    09:00 +16°C° 0 mm 3 mps 766 mmHg 72%
    10:00 +17°C° 0 mm 3 mps 766 mmHg 67%
    11:00 +19°C° 0 mm 3 mps 766 mmHg 61%
    12:00 +19°C° 0 mm 3 mps 765 mmHg 60%
    13:00 +19°C° 0 mm 3 mps 765 mmHg 58%
    14:00 +20°C° 0 mm 3 mps 764 mmHg 57%
    15:00 +19°C° 0 mm 4 mps 764 mmHg 60%
    16:00 +18°C° 0 mm 4 mps 765 mmHg 64%
    17:00 +15°C° 0 mm 4 mps 765 mmHg 68%
    18:00 +15°C° 0 mm 5 mps 765 mmHg 69%
    19:00 +15°C° 0 mm 5 mps 765 mmHg 70%
    20:00 +14°C° 0 mm 5 mps 765 mmHg 71%
    21:00 +14°C° 0 mm 6 mps 765 mmHg 72%
    22:00 +14°C° 0 mm 6 mps 765 mmHg 73%
    23:00 +13°C° 0 mm 6 mps 765 mmHg 73%
    Show more